Погода в Лаоаге

Филиппины     18°12′29″N   120°35′28″E
темп.,
°C
ветер,
м/с
пор.,
м/с
влажн.,
%
обл.,
%
осадки,
мм/ч
давл.,
гПа
погр.,
м
7 мая, пт
пт723:00+29вюв12765 0.0 101173
02:00+29юв116987 0.0 100998
05:00+28юв226993 0.0 1010128
08:00+29в006099 0.0 1012161
11:00+29сз557199 0.0 1011346
14:00+29сз557482 0.0 1009513
17:00+29ссз34735 0.0 1009436
20:00+29сз117616 0.0 1009101
8 мая, сб
сб823:00+29ю12745 0.0 1009117
02:00+29ююз34775 0.0 1008273
05:00+28ю457937 0.0 1008419
08:00+29ююз33714 0.0 1010343
11:00+29зюз55746 0.0 1010479
14:00+30з447333 0.0 1008652
17:00+29зюз43759 0.0 1008485
20:00+29зсз2279100 0.0 1009320
9 мая, вс
вс923:00+29ссв007714 0.0 1010246
02:00+28ююв00805 0.0 1008221
05:00+28юв11805 0.0 1009321
08:00+28в00796 0.0 1010263
11:00+29зсз54796 0.0 1009415
14:00+29сз44758 0.0 1008513
17:00+29ссв457023 0.4 1008629
20:00+27в336734 0.5 1010134
10 мая, пн
пн1023:00+27всв22674 0.0 1010161
02:00+27в11745 0.0 1008148
05:00+26вюв11734 0.0 1008139
08:00+27ююз11705 0.0 1009208
11:00+28з43765 0.0 1009467
14:00+29зсз44725 0.0 1008576
17:00+29ссз33735 0.0 1008624
20:00+28с33775 0.0 1009480
11 мая, вт
вт1123:00+28ссв33815 0.0 1010456
02:00+27св22822 0.0 1008297
05:00+27всв22825 0.8 1009183
08:00+28с11785 0.8 1010320
11:00+28сз537812 0.0 1009415
14:00+29ссз66778 0.0 1008596
17:00+29ссз55765 0.1 1007542
20:00+28с55785 0.1 1009467